Flag for Germany Weather past 2 weeks in Gütersloh, North Rhine-Westphalia, Germany

Now
80 °F

Sunny.


Feels Like: 82 °F
Forecast: 65 / 81 °F
Wind: 3 mph from East

Location: Bad Lippspringe

Current Time: Jul 28, 2014 at 3:20:04 PM

Latest Report: Jul 28, 2014 at 2:00 PM


Visibility: 7 mi

Pressure: 29.85 "Hg

Humidity: 54%

Dew point: 62 °F

Location of GüterslohLocation

Historic Weather in Gütersloh — Graph

°F

Gütersloh temperature yesterday

Maximum temperature yesterday: 77 °F (at 6:00 PM)
Minimum temperature yesterday: 58 °F (at 6:00 AM)
Average temperature yesterday: 68 °F

Past Weeks' High & Low Weather Summary

 TemperatureHumidityPressure
High90 °F (Jul 19, 4:00 PM)98% (Jul 26, 5:00 AM)30.19 "Hg (Jul 26, 5:00 AM)
Low54 °F (Jul 15, 6:00 AM)28% (Jul 19, 3:00 PM)29.70 "Hg (Jul 13, 7:00 PM)
Average70 °F72%29.98 "Hg
* Reported Jul 13 2:00 PM — Jul 28 2:00 PM, Gütersloh, Weather by CustomWeather, © 2014

Note: Actual official high and low records may vary slightly from our data, if they occured in-between our weather recording intervals... More about our weather records

Advertising

Gütersloh weather history for previous 24 hours

 ConditionsComfort  
Time TempWeatherWind HumidityBarometerVisibility
2:00 PM
Jul 28
80 °FSunny.3 mph54%29.85 "Hg7 mi
1:00 PM79 °FSunny.6 mph57%29.87 "Hg7 mi
12:00 PM77 °FPassing clouds.5 mph61%29.88 "Hg4 mi
11:00 AM75 °FOvercast.5 mph66%29.89 "Hg6 mi
10:00 AM74 °FSunny.5 mph72%29.90 "Hg6 mi
9:00 AM71 °FPassing clouds.3 mph79%29.91 "Hg4 mi
8:00 AM67 °FFog.5 mph87%29.92 "Hg4 mi
7:00 AM60 °FFog.1 mph97%29.94 "Hg2 mi
6:00 AM58 °FFog.1 mph97%29.94 "Hg1 mi
5:00 AM58 °FFog.1 mph97%29.95 "Hg1 mi
4:00 AM59 °FFog.1 mph97%29.95 "Hg2 mi
3:00 AM59 °FFog.1 mph96%29.97 "Hg3 mi
2:00 AM60 °FFog.1 mph96%29.97 "Hg2 mi
1:00 AM62 °FFog.1 mph95%29.98 "Hg3 mi
12:00 AM62 °FFog.1 mph95%29.98 "Hg4 mi
11:00 PM
Jul 27
64 °FClear.1 mph91%29.98 "Hg6 mi
10:00 PM66 °FPassing clouds.2 mph87%29.98 "Hg6 mi
9:00 PM72 °FPassing clouds.1 mph68%29.97 "Hg8 mi
8:00 PM75 °FSunny.2 mph62%29.96 "Hg8 mi
7:00 PM76 °FScattered clouds.5 mph55%29.94 "Hg10 mi
6:00 PM77 °FScattered clouds.3 mph53%29.94 "Hg9 mi
5:00 PM77 °FScattered clouds.5 mph53%29.96 "Hg6 mi
4:00 PM77 °FScattered clouds.6 mph58%29.96 "Hg5 mi
3:00 PM76 °FScattered clouds.5 mph61%29.97 "Hg7 mi
Weather by CustomWeather, © 2014

See weather overviewHow to use our weather pages